• In Hungary
  • List of Countries
  • For 7 days
  • Water Temperature
  • Satellite Maps
  • Weather Map
  • News
  • Weather Widgets
  • user-avatar
    Login

    Hourly Weather Sint-Niklaas

    Today, 17 December, Sunday

    Time Temperature Precipitation Wind Pressure Humidity
    00:00 +1°C° 0 mm 3 mps 763 mmHg 86%
    01:00 +1°C° 0.1 mm 3 mps 764 mmHg 86%
    02:00 +1°C° 0.1 mm 3 mps 764 mmHg 86%
    03:00 +1°C° 0.1 mm 3 mps 764 mmHg 87%
    04:00 +1°C° 0.1 mm 3 mps 764 mmHg 87%
    05:00 +1°C° 0.1 mm 3 mps 765 mmHg 87%
    06:00 +2°C° 0 mm 2 mps 765 mmHg 88%
    07:00 +1°C° 0 mm 3 mps 766 mmHg 88%
    08:00 +1°C° 0 mm 3 mps 766 mmHg 87%
    09:00 +2°C° 0 mm 3 mps 766 mmHg 87%
    10:00 +3°C° 0 mm 3 mps 766 mmHg 84%
    11:00 +4°C° 0 mm 4 mps 767 mmHg 81%
    12:00 +5°C° 0 mm 4 mps 767 mmHg 78%
    13:00 +4°C° 0 mm 4 mps 767 mmHg 78%
    14:00 +4°C° 0 mm 4 mps 766 mmHg 79%
    15:00 +3°C° 0 mm 4 mps 766 mmHg 79%
    16:00 +2°C° 0.1 mm 5 mps 766 mmHg 79%
    17:00 +2°C° 0.1 mm 5 mps 766 mmHg 79%
    18:00 +2°C° 0.1 mm 6 mps 766 mmHg 79%
    19:00 +2°C° 0.5 mm 6 mps 765 mmHg 81%
    20:00 +2°C° 0.5 mm 7 mps 764 mmHg 84%
    21:00 +2°C° 0.5 mm 7 mps 764 mmHg 86%
    22:00 +3°C° 0.4 mm 7 mps 764 mmHg 88%
    23:00 +3°C° 0.4 mm 7 mps 763 mmHg 90%

    Tomorrow, 18 December, Monday

    Time Temperature Precipitation Wind Pressure Humidity
    00:00 +3°C° 0.4 mm 6 mps 763 mmHg 91%
    01:00 +4°C° 0.2 mm 6 mps 763 mmHg 92%
    02:00 +5°C° 0.2 mm 5 mps 762 mmHg 92%
    03:00 +6°C° 0.2 mm 5 mps 762 mmHg 92%
    04:00 +6°C° 0.1 mm 5 mps 763 mmHg 89%
    05:00 +6°C° 0.1 mm 5 mps 763 mmHg 87%
    06:00 +5°C° 0.1 mm 6 mps 764 mmHg 85%
    07:00 +5°C° 0 mm 5 mps 764 mmHg 84%
    08:00 +5°C° 0 mm 5 mps 765 mmHg 83%
    09:00 +5°C° 0 mm 5 mps 766 mmHg 82%
    10:00 +6°C° 0 mm 5 mps 766 mmHg 78%
    11:00 +7°C° 0 mm 5 mps 767 mmHg 74%
    12:00 +7°C° 0 mm 6 mps 767 mmHg 70%
    13:00 +7°C° 0 mm 5 mps 767 mmHg 72%
    14:00 +6°C° 0 mm 4 mps 768 mmHg 75%
    15:00 +6°C° 0 mm 4 mps 768 mmHg 77%
    16:00 +5°C° 0 mm 3 mps 769 mmHg 80%
    17:00 +4°C° 0 mm 3 mps 770 mmHg 83%
    18:00 +4°C° 0 mm 3 mps 770 mmHg 85%
    19:00 +3°C° 0 mm 3 mps 771 mmHg 86%
    20:00 +4°C° 0 mm 2 mps 771 mmHg 87%
    21:00 +4°C° 0 mm 2 mps 772 mmHg 88%
    22:00 +4°C° 0 mm 2 mps 772 mmHg 88%
    23:00 +4°C° 0 mm 2 mps 772 mmHg 88%

    Day after tomorrow, 19 December, Tuesday

    Time Temperature Precipitation Wind Pressure Humidity
    00:00 +4°C° 0 mm 2 mps 773 mmHg 88%
    01:00 +4°C° 0 mm 2 mps 773 mmHg 89%
    02:00 +3°C° 0 mm 2 mps 773 mmHg 89%
    03:00 +3°C° 0 mm 2 mps 773 mmHg 89%
    04:00 +3°C° 0 mm 2 mps 774 mmHg 90%
    05:00 +4°C° 0 mm 1 mps 774 mmHg 90%
    06:00 +4°C° 0 mm 1 mps 774 mmHg 91%
    07:00 +3°C° 0 mm 2 mps 774 mmHg 92%
    08:00 +4°C° 0 mm 2 mps 774 mmHg 92%
    09:00 +4°C° 0 mm 2 mps 775 mmHg 93%
    10:00 +5°C° 0 mm 2 mps 775 mmHg 90%
    11:00 +5°C° 0 mm 3 mps 775 mmHg 86%
    12:00 +7°C° 0 mm 3 mps 775 mmHg 83%
    13:00 +7°C° 0 mm 3 mps 775 mmHg 84%
    14:00 +5°C° 0 mm 3 mps 775 mmHg 86%
    15:00 +5°C° 0 mm 3 mps 774 mmHg 87%
    16:00 +4°C° 0 mm 3 mps 774 mmHg 88%
    17:00 +4°C° 0 mm 3 mps 775 mmHg 89%
    18:00 +3°C° 0 mm 3 mps 775 mmHg 89%
    19:00 +3°C° 0 mm 3 mps 775 mmHg 89%
    20:00 +3°C° 0 mm 3 mps 775 mmHg 89%
    21:00 +3°C° 0 mm 3 mps 775 mmHg 88%
    22:00 +3°C° 0 mm 3 mps 775 mmHg 89%
    23:00 +3°C° 0 mm 3 mps 775 mmHg 90%

    20 December, Wednesday

    Time Temperature Precipitation Wind Pressure Humidity
    00:00 +3°C° 0 mm 3 mps 774 mmHg 91%
    01:00 +3°C° 0 mm 3 mps 774 mmHg 92%
    02:00 +3°C° 0 mm 3 mps 774 mmHg 93%
    03:00 +3°C° 0 mm 3 mps 774 mmHg 94%
    04:00 +3°C° 0 mm 3 mps 774 mmHg 94%
    05:00 +3°C° 0 mm 3 mps 774 mmHg 95%
    06:00 +3°C° 0 mm 3 mps 774 mmHg 95%
    07:00 +3°C° 0 mm 3 mps 774 mmHg 96%
    08:00 +4°C° 0 mm 3 mps 774 mmHg 96%
    09:00 +4°C° 0 mm 3 mps 774 mmHg 96%
    10:00 +5°C° 0 mm 3 mps 774 mmHg 96%
    11:00 +5°C° 0 mm 3 mps 774 mmHg 95%
    12:00 +7°C° 0 mm 3 mps 774 mmHg 95%
    13:00 +7°C° 0 mm 3 mps 774 mmHg 95%
    14:00 +7°C° 0 mm 3 mps 774 mmHg 96%
    15:00 +7°C° 0 mm 3 mps 773 mmHg 96%
    16:00 +7°C° 0 mm 3 mps 774 mmHg 96%
    17:00 +7°C° 0 mm 3 mps 774 mmHg 97%
    18:00 +7°C° 0 mm 3 mps 774 mmHg 97%
    19:00 +8°C° 0 mm 3 mps 774 mmHg 97%
    20:00 +7°C° 0 mm 4 mps 774 mmHg 97%
    21:00 +7°C° 0 mm 4 mps 774 mmHg 97%
    22:00 +7°C° 0 mm 4 mps 774 mmHg 96%
    23:00 +8°C° 0 mm 4 mps 774 mmHg 95%

    21 December, Thursday

    Time Temperature Precipitation Wind Pressure Humidity
    00:00 +8°C° 0 mm 4 mps 774 mmHg 95%
    01:00 +8°C° 0 mm 4 mps 773 mmHg 94%
    02:00 +8°C° 0 mm 5 mps 773 mmHg 93%
    03:00 +8°C° 0 mm 5 mps 773 mmHg 93%
    04:00 +8°C° 0.1 mm 5 mps 773 mmHg 93%
    05:00 +8°C° 0.1 mm 5 mps 773 mmHg 94%
    06:00 +8°C° 0.1 mm 5 mps 773 mmHg 94%
    07:00 +8°C° 0.6 mm 5 mps 773 mmHg 95%
    08:00 +9°C° 0.6 mm 5 mps 773 mmHg 95%
    09:00 +9°C° 0.6 mm 5 mps 773 mmHg 95%
    10:00 +9°C° 0.5 mm 5 mps 772 mmHg 95%
    11:00 +9°C° 0.5 mm 5 mps 772 mmHg 95%
    12:00 +9°C° 0.5 mm 5 mps 772 mmHg 95%
    13:00 +9°C° 0.2 mm 5 mps 771 mmHg 94%
    14:00 +9°C° 0.2 mm 5 mps 771 mmHg 94%
    15:00 +9°C° 0.2 mm 6 mps 771 mmHg 94%
    16:00 +9°C° 0.5 mm 6 mps 771 mmHg 94%
    17:00 +9°C° 0.5 mm 6 mps 771 mmHg 94%
    18:00 +9°C° 0.5 mm 6 mps 771 mmHg 93%
    19:00 +9°C° 0.6 mm 6 mps 771 mmHg 92%
    20:00 +9°C° 0.6 mm 6 mps 772 mmHg 91%
    21:00 +8°C° 0.6 mm 6 mps 772 mmHg 89%
    22:00 +8°C° 0 mm 6 mps 773 mmHg 88%
    23:00 +7°C° 0 mm 5 mps 774 mmHg 88%

    22 December, Friday

    Time Temperature Precipitation Wind Pressure Humidity
    00:00 +7°C° 0 mm 5 mps 774 mmHg 87%
    01:00 +6°C° 0 mm 5 mps 775 mmHg 87%
    02:00 +6°C° 0 mm 4 mps 775 mmHg 88%
    03:00 +5°C° 0 mm 4 mps 776 mmHg 89%
    04:00 +5°C° 0 mm 4 mps 776 mmHg 88%
    05:00 +5°C° 0 mm 4 mps 777 mmHg 88%
    06:00 +4°C° 0 mm 3 mps 777 mmHg 87%
    07:00 +4°C° 0 mm 3 mps 777 mmHg 86%
    08:00 +4°C° 0 mm 3 mps 778 mmHg 85%
    09:00 +4°C° 0 mm 3 mps 779 mmHg 84%
    10:00 +5°C° 0 mm 4 mps 779 mmHg 80%
    11:00 +6°C° 0 mm 4 mps 779 mmHg 76%
    12:00 +7°C° 0 mm 5 mps 779 mmHg 71%
    13:00 +7°C° 0 mm 4 mps 779 mmHg 74%
    14:00 +6°C° 0 mm 4 mps 779 mmHg 77%
    15:00 +7°C° 0 mm 3 mps 779 mmHg 80%
    16:00 +5°C° 0 mm 3 mps 779 mmHg 83%
    17:00 +4°C° 0 mm 3 mps 779 mmHg 87%
    18:00 +4°C° 0 mm 3 mps 779 mmHg 90%
    19:00 +4°C° 0 mm 3 mps 779 mmHg 90%
    20:00 +3°C° 0 mm 3 mps 779 mmHg 91%
    21:00 +3°C° 0 mm 3 mps 779 mmHg 91%
    22:00 +3°C° 0 mm 3 mps 779 mmHg 91%
    23:00 +3°C° 0 mm 3 mps 778 mmHg 90%
    Show more